Location: ????
(30.2663°N, 31.2484°E)
Time: 12:13:06
(UTC+00:00)

Cosmos 2056 Rocket - Pass Details

Date: 27 September 2022
Orbit: 741 x 801 km, 74.0° (Epoch: 26 November)

Event Time Altitude Azimuth Distance (km) Brightness Sun altitude
Exits shadow 01:33:14 49° 133° (SE) 962 4.1 -29.1°
Maximum altitude 01:33:57 53° 103° (ESE) 913 4.1 -29.0°
Drops below altitude 10° 01:38:54 10° 27° (NNE) 2,258 6.4 -28.0°
Sets 01:41:18 0° 23° (NNE) 3,181 7.2 -27.5°
